User: anonymous   Login
Location: Unspecified
(0.0000°N, 0.0000°E)
Time: 12:52:36
(UTC+00:00)
Language:

OFEQ 10 - Orbit

View from above orbital plane
View from above orbital plane
View from above satellite
View from above satellite

Ground track
Ground track

The orbit data is extracted from the following two-line orbital elements,

1 39650U 14019A   17228.77613332 0.00000400  00000-0  19842-4 0    05
2 39650 140.9209 320.8081 0001996 127.3494 232.6499 15.16868696    08
Epoch (UTC): 16 August 2017 18:37:37
Eccentricity: 0.0001996
inclination: 140.9209°
perigee height: 514 km
apogee height: 516 km
right ascension of ascending node: 320.8081°
argument of perigee: 127.3494°
revolutions per day: 15.16868696
mean anomaly at epoch: 232.6499°
orbit number at epoch: 0

The dashed part of the orbit path shows where the satellite is in the earth's shadow,  

DLR